Location: Georgenberg
(48.1500°N, 16.2500°E)
Time: 10:42:03
(UTC+01:00)

ISS - Visible Passes

Search period start: 04 December 2022 00:00
Search period end: 14 December 2022 00:00
Orbit: 414 x 420 km, 51.6° (Epoch: 04 December)

Date Brightness Start Highest point End Pass type
(mag) Time Alt. Az. Time Alt. Az. Time Alt. Az.
04 Dec -3.8 17:04:49 10° WNW 17:08:10 85° SW 17:11:32 10° ESE visible
04 Dec -1.2 18:42:13 10° W 18:44:33 18° SW 18:44:45 18° SW visible
05 Dec -1.7 17:53:42 10° W 17:56:35 27° SW 17:59:23 10° SSE visible
06 Dec -2.4 17:05:21 10° WNW 17:08:32 41° SSW 17:11:42 10° SE visible
07 Dec -0.5 17:55:16 10° WSW 17:56:37 12° SW 17:57:57 10° SSW visible
08 Dec -0.8 17:06:12 10° W 17:08:37 19° SW 17:11:02 10° S visible
